| time (UTC) | temp F | wind direction | speed MPH | gust MPH | rain 1hr in | rain 24hr in | rain mn in | humidity % | barometer mb |
| 20260906003045 | 85 | 252 | 2.0 | 8.0 | 0.00 | 0.01 | 0.01 | 39 | 1011.1 |
| 20260906001538 | 85 | 298 | 2.0 | 6.0 | 0.00 | 0.01 | 0.01 | 39 | 1011.1 |
| 20260906000034 | 85 | 227 | 3.0 | 0.0 | 0.00 | 0.00 | 0.01 | 39 | 1011.1 |
| 20260905234530 | 86 | 260 | 0.0 | 9.0 | 0.00 | 0.01 | 0.01 | 43 | 1011.1 |
| 20260905233031 | 86 | 249 | 2.0 | 8.0 | 0.00 | 0.01 | 0.01 | 48 | 1011.0 |
| 20260905231520 | 87 | 221 | 1.0 | 6.0 | 0.00 | 0.01 | 0.01 | 50 | 1011.0 |
| 20260905230016 | 88 | 207 | 2.0 | 7.0 | 0.00 | 0.01 | 0.01 | 54 | 1011.1 |
| 20260905224511 | 89 | 201 | 3.0 | 8.0 | 0.00 | 0.01 | 0.01 | 55 | 1011.2 |
| 20260905223025 | 89 | 216 | 2.0 | 8.0 | 0.00 | 0.01 | 0.01 | 56 | 1011.1 |
| 20260905221507 | 89 | 240 | 3.0 | 9.0 | 0.00 | 0.01 | 0.01 | 55 | 1011.3 |
| 20260905220104 | 88 | 238 | 1.0 | 6.0 | 0.00 | 0.01 | 0.01 | 57 | 1011.2 |
| 20260905214554 | 89 | 224 | 2.0 | 7.0 | 0.00 | 0.01 | 0.01 | 58 | 1011.4 |
| 20260905213049 | 88 | 256 | 4.0 | 9.0 | 0.00 | 0.01 | 0.01 | 60 | 1011.6 |
| 20260905211548 | 89 | 278 | 2.0 | 8.0 | 0.00 | 0.01 | 0.01 | 58 | 1011.7 |
| 20260905210057 | 89 | 246 | 3.0 | 9.0 | 0.00 | 0.01 | 0.01 | 59 | 1011.5 |
| 20260905204537 | 89 | 233 | 2.0 | 10.0 | 0.00 | 0.01 | 0.01 | 60 | 1011.5 |
| 20260905203034 | 89 | 264 | 2.0 | 10.0 | 0.00 | 0.01 | 0.01 | 59 | 1011.6 |
| 20260905201532 | 89 | 251 | 3.0 | 9.0 | 0.00 | 0.01 | 0.01 | 59 | 1011.5 |
| 20260905200030 | 89 | 300 | 4.0 | 11.0 | 0.00 | 0.01 | 0.01 | 60 | 1011.9 |
| 20260905194517 | 90 | 214 | 4.0 | 10.0 | 0.00 | 0.01 | 0.01 | 61 | 1012.0 |
| 20260905193013 | 90 | 214 | 0.0 | 8.0 | 0.00 | 0.01 | 0.01 | 61 | 1012.4 |
| 20260905191509 | 90 | 212 | 3.0 | 10.0 | 0.00 | 0.01 | 0.01 | 61 | 1012.5 |
| 20260905190004 | 91 | 226 | 1.0 | 8.0 | 0.00 | 0.01 | 0.01 | 60 | 1012.7 |
| 20260905184610 | 91 | 236 | 3.0 | 9.0 | 0.00 | 0.01 | 0.01 | 61 | 1012.7 |
| 20260905183055 | 90 | 238 | 2.0 | 8.0 | 0.00 | 0.01 | 0.01 | 61 | 1013.1 |
| 20260905181550 | 90 | 206 | 3.0 | 9.0 | 0.00 | 0.01 | 0.01 | 62 | 1013.3 |
| 20260905180046 | 91 | 229 | 1.0 | 7.0 | 0.00 | 0.01 | 0.01 | 61 | 1013.3 |
| 20260905174540 | 91 | 248 | 1.0 | 7.0 | 0.00 | 0.02 | 0.01 | 61 | 1013.4 |
| 20260905173038 | 91 | 233 | 1.0 | 6.0 | 0.00 | 0.02 | 0.01 | 61 | 1013.5 |
| 20260905171542 | 91 | 228 | 1.0 | 6.0 | 0.00 | 0.02 | 0.01 | 60 | 1013.6 |
| 20260905170031 | 92 | 241 | 0.0 | 5.0 | 0.00 | 0.02 | 0.01 | 61 | 1013.7 |
| 20260905164525 | 90 | 226 | 1.0 | 5.0 | 0.00 | 0.04 | 0.01 | 54 | 1013.7 |
| 20260905163021 | 88 | 356 | 0.0 | 7.0 | 0.00 | 0.04 | 0.01 | 58 | 1013.8 |
| 20260905161520 | 91 | 141 | 0.0 | 7.0 | 0.00 | 0.04 | 0.01 | 58 | 1014.0 |
| 20260905160025 | 90 | 240 | 1.0 | 6.0 | 0.00 | 0.04 | 0.01 | 56 | 1013.9 |
| 20260905154507 | 91 | 143 | 0.0 | 4.0 | 0.00 | 0.04 | 0.01 | 58 | 1013.8 |
| 20260905153004 | 91 | 224 | 0.0 | 7.0 | 0.00 | 0.04 | 0.01 | 58 | 1013.7 |
| 20260905151559 | 90 | 194 | 0.0 | 5.0 | 0.00 | 0.04 | 0.01 | 54 | 1013.7 |
| 20260905150054 | 89 | 212 | 0.0 | 3.0 | 0.00 | 0.04 | 0.01 | 51 | 1013.7 |
| 20260905144553 | 88 | 335 | 0.0 | 1.0 | 0.00 | 0.04 | 0.01 | 20 | 1013.7 |
| 20260905143045 | 86 | 110 | 0.0 | 2.0 | 0.00 | 0.04 | 0.01 | 9 | 1013.8 |
| 20260905141541 | 86 | 38 | 0.0 | 1.0 | 0.00 | 0.04 | 0.01 | 17 | 1013.8 |
| 20260905140039 | 88 | 278 | 0.0 | 0.0 | 0.00 | 0.04 | 0.01 | 6 | 1013.6 |
| 20260905134531 | 85 | 8 | 0.0 | 1.0 | 0.00 | 0.04 | 0.01 | 1 | 1013.5 |
| 20260905133026 | 84 | 330 | 0.0 | 1.0 | 0.00 | 0.04 | 0.01 | 1 | 1013.4 |
| 20260905131522 | 83 | 21 | 0.0 | 0.0 | 0.00 | 0.04 | 0.01 | 1 | 1013.5 |
| 20260905130020 | 82 | 325 | 0.0 | 5.0 | 0.00 | 0.04 | 0.01 | 1 | 1013.5 |
| 20260905124517 | 82 | 62 | 0.0 | 3.0 | 0.00 | 0.04 | 0.01 | 1 | 1013.3 |
| 20260905123008 | 81 | 51 | 0.0 | 1.0 | 0.00 | 0.04 | 0.01 | 1 | 1013.2 |
| 20260905121506 | 81 | 23 | 0.0 | 0.0 | 0.00 | 0.04 | 0.01 | 1013.1 | |
| 20260905120001 | 0 | 0.0 | 0.0 | 0.00 | 0.04 | 0.01 | 1013.0 | ||
| 20260905114609 | 0 | 0.0 | 0.0 | 0.00 | 0.04 | 0.01 | 1012.9 | ||
| 20260905113052 | 0 | 0.0 | 0.0 | 0.00 | 0.04 | 0.01 | 1012.9 | ||
| 20260905111552 | 0 | 0.0 | 0.0 | 0.00 | 0.04 | 0.01 | 1012.8 | ||
| 20260905110043 | 0 | 0.0 | 0.0 | 0.00 | 0.04 | 0.01 | 1012.6 | ||
| 20260905104545 | 0 | 0.0 | 0.0 | 0.00 | 0.04 | 0.01 | 1012.6 | ||
| 20260905103037 | 0 | 0.0 | 0.0 | 0.00 | 0.04 | 0.01 | 1012.5 | ||
| 20260905101532 | 0 | 0.0 | 0.0 | 0.00 | 0.04 | 0.01 | 1012.5 | ||
| 20260905100031 | 0 | 0.0 | 0.0 | 0.00 | 0.04 | 0.01 | 1012.3 | ||
| 20260905094525 | 0 | 0.0 | 0.0 | 0.00 | 0.04 | 0.01 | 1012.3 | ||
| 20260905093020 | 0 | 0.0 | 0.0 | 0.00 | 0.04 | 0.01 | 1012.5 | ||
| 20260905091516 | 0 | 0.0 | 0.0 | 0.00 | 0.04 | 0.01 | 1012.4 | ||
| 20260905090018 | -90 | 239 | 1.0 | 5.0 | 0.01 | 0.04 | 0.01 | 1 | 1012.4 |
| 20260905084512 | 83 | 224 | 0.0 | 4.0 | 0.01 | 0.04 | 0.01 | 1 | 1012.5 |
| 20260905083001 | 83 | 246 | 1.0 | 5.0 | 0.01 | 0.04 | 0.01 | 1 | 1012.3 |
| 20260905081611 | 83 | 211 | 0.0 | 8.0 | 0.01 | 0.04 | 0.01 | 1 | 1012.1 |
| 20260905080058 | 84 | 160 | 2.0 | 6.0 | 0.00 | 0.03 | 0.00 | 1 | 1012.2 |
| 20260905074555 | 84 | 216 | 0.0 | 3.0 | 0.00 | 0.03 | 0.00 | 6 | 1012.3 |
| 20260905073047 | 83 | 216 | 0.0 | 5.0 | 0.00 | 0.03 | 0.00 | 1 | 1012.3 |
| 20260905071546 | 83 | 163 | 0.0 | 5.0 | 0.00 | 0.03 | 0.00 | 1 | 1012.2 |
| 20260905070044 | 83 | 206 | 0.0 | 4.0 | 0.00 | 0.03 | 0.00 | 1 | 1012.1 |
| 20260905064531 | 83 | 222 | 1.0 | 7.0 | 0.00 | 0.03 | 0.00 | 1 | 1012.0 |
| 20260905063026 | 83 | 198 | 0.0 | 5.0 | 0.00 | 0.03 | 0.00 | 1 | 1012.0 |
| 20260905061529 | 83 | 218 | 1.0 | 5.0 | 0.00 | 0.03 | 0.00 | 1 | 1012.3 |
| 20260905060020 | 83 | 157 | 0.0 | 6.0 | 0.00 | 0.03 | 0.00 | 1 | 1012.3 |
| 20260905054513 | 83 | 182 | 2.0 | 5.0 | 0.00 | 0.03 | 0.00 | 1 | 1012.3 |
| 20260905053018 | 83 | 167 | 1.0 | 4.0 | 0.00 | 0.03 | 0.00 | 1 | 1012.4 |
| 20260905051504 | 83 | 214 | 0.0 | 2.0 | 0.00 | 0.03 | 0.00 | 1 | 1012.7 |
| 20260905050100 | 83 | 209 | 0.0 | 5.0 | 0.00 | 0.03 | 0.00 | 1 | 1012.7 |
| 20260905044559 | 83 | 168 | 0.0 | 4.0 | 0.00 | 0.31 | 0.03 | 1 | 1012.9 |
| 20260905043118 | 84 | 168 | 1.0 | 5.0 | 0.00 | 0.31 | 0.03 | 1 | 1013.1 |
| 20260905041559 | 84 | 116 | 0.0 | 5.0 | 0.00 | 0.31 | 0.03 | 2 | 1013.1 |
| 20260905040117 | 84 | 141 | 0.0 | 5.0 | 0.00 | 0.31 | 0.03 | 1 | 1013.1 |
| 20260905034558 | 84 | 136 | 1.0 | 5.0 | 0.00 | 0.32 | 0.03 | 1 | 1013.3 |
| 20260905033056 | 84 | 142 | 0.0 | 2.0 | 0.00 | 0.32 | 0.03 | 1 | 1013.3 |
| 20260905031654 | 84 | 124 | 0.0 | 5.0 | 0.00 | 0.32 | 0.03 | 1 | 1013.5 |
| 20260905030054 | 83 | 143 | 0.0 | 4.0 | 0.00 | 0.32 | 0.03 | 1 | 1013.5 |
| 20260905024553 | 83 | 150 | 0.0 | 1.0 | 0.00 | 0.32 | 0.03 | 1 | 1013.7 |
| 20260905023058 | 83 | 152 | 0.0 | 4.0 | 0.00 | 0.32 | 0.03 | 1 | 1013.6 |
| 20260905021552 | 83 | 171 | 0.0 | 4.0 | 0.00 | 0.32 | 0.03 | 1 | 1013.5 |
| 20260905020051 | 83 | 137 | 0.0 | 1.0 | 0.00 | 0.32 | 0.03 | 1 | 1013.4 |
| 20260905014550 | 83 | 125 | 0.0 | 3.0 | 0.00 | 0.32 | 0.03 | 1 | 1013.2 |
| 20260905013054 | 83 | 174 | 0.0 | 1.0 | 0.00 | 0.32 | 0.03 | 1 | 1013.1 |
| 20260905011539 | 83 | 136 | 0.0 | 3.0 | 0.00 | 0.32 | 0.03 | 1 | 1012.9 |
| 20260905010036 | 84 | 149 | 0.0 | 4.0 | 0.00 | 0.32 | 0.03 | 1 | 1013.0 |
| 20260905004532 | 84 | 173 | 0.0 | 4.0 | 0.00 | 0.32 | 0.03 | 1 | 1012.8 |